Weather History for Douglas, WY

Change the Weather History Date:

Thursday, December 13, 2012

  Actual Average Record
Temperature  
Mean Temperature 38 °F 24 °F  
Max Temperature 51 °F 37 °F 55 °F (2010)
Min Temperature 25 °F 10 °F -15 °F (2000)
Degree Days  
Heating Degree Days 27 41  
Month to date heating degree days 304 523  
Since 1 July heating degree days 1851 2345  
Cooling Degree Days 0 0  
Month to date cooling degree days 0 0  
Year to date cooling degree days 831 486  
Moisture  
Dew Point 18 °F    
Average Humidity 46    
Maximum Humidity 63    
Minimum Humidity 28    
Precipitation  
Precipitation 0.00 in 0.01 in 0.04 in (2008)
Month to date precipitation T 0.19  
Year to date precipitation 5.26 13.18  
Sea Level Pressure  
Sea Level Pressure 29.92 in    
Wind  
Wind Speed 5 mph (West)    
Max Wind Speed 21 mph    
Max Gust Speed 25 mph    
Visibility 10 miles    
Events      
T = Trace of Precipitation, MM = Missing Value Source: NWS Daily Summary

Daily Weather History Graph

Daily Weather History Graph

Search for Another Location

Airport:

Trip Planner

Search our weather history database for the weather conditions in past years. The results will help you decide how hot, cold, wet, or windy it might be!

Date:

Astronomy

Dec. 13, 2012 Rise Set
Actual Time 7:24 AM MST 4:27 PM MST
Civil Twilight 6:51 AM MST 5:00 PM MST
Nautical Twilight 6:16 AM MST 5:35 PM MST
Astronomical Twilight 5:41 AM MST 6:10 PM MST
Moon 7:34 AM MST (12/13) 5:13 PM MST (12/13)
Length of Visible Light 10h 08m
Length of Day
9h 03m
New Moon, 0% of the Moon is Illuminated
Dec 13
New Moon
Dec 19
First Quarter
Dec 28
Full
Jan 4
Last Quarter
Jan 11
New

Hourly Weather History & Observations

Time (MST) Temp. Windchill Dew Point Humidity Pressure Visibility Wind Dir Wind Speed Gust Speed Precip Events Conditions
12:53 AM 28.9 °F - 17.1 °F 61% 29.91 in 10.0 mi Calm Calm - N/A   Clear
1:53 AM 30.0 °F 26.5 °F 18.0 °F 61% 29.91 in 10.0 mi NNW 3.5 mph - N/A   Clear
2:53 AM 28.0 °F 21.7 °F 18.0 °F 66% 29.93 in 10.0 mi NNW 5.8 mph - N/A   Clear
3:53 AM 28.9 °F 21.9 °F 17.1 °F 61% 29.92 in 10.0 mi North 6.9 mph - N/A   Clear
4:53 AM 28.0 °F 20.8 °F 17.1 °F 63% 29.94 in 10.0 mi North 6.9 mph - N/A   Clear
5:53 AM 28.0 °F - 17.1 °F 63% 29.95 in 10.0 mi Calm Calm - N/A   Clear
6:53 AM 28.0 °F - 18.0 °F 66% 29.96 in 10.0 mi Calm Calm - N/A   Clear
7:53 AM 30.9 °F - 18.0 °F 59% 29.96 in 10.0 mi Calm Calm - N/A   Clear
8:53 AM 30.0 °F - 19.9 °F 66% 29.97 in 10.0 mi Calm Calm - N/A   Clear
9:53 AM 33.1 °F 30.0 °F 21.0 °F 61% 29.97 in 10.0 mi Variable 3.5 mph - N/A   Clear
10:53 AM 37.9 °F 31.5 °F 21.0 °F 51% 29.97 in 10.0 mi SW 9.2 mph - N/A   Clear
11:53 AM 44.1 °F 38.6 °F 19.9 °F 38% 29.93 in 10.0 mi West 10.4 mph - N/A   Clear
12:53 PM 51.1 °F - 19.0 °F 28% 29.89 in 10.0 mi WSW 11.5 mph - N/A   Clear
1:53 PM 50.0 °F - 21.0 °F 32% 29.88 in 10.0 mi West 13.8 mph - N/A   Clear
2:53 PM 50.0 °F - 19.0 °F 29% 29.89 in 10.0 mi West 13.8 mph - N/A   Clear
4:53 PM 43.0 °F 37.2 °F 18.0 °F 37% 29.90 in 10.0 mi SSW 10.4 mph - N/A   Clear
6:53 PM 44.1 °F 42.5 °F 15.1 °F 31% 29.90 in 10.0 mi WSW 3.5 mph - N/A   Partly Cloudy
7:53 PM 34.0 °F 31.0 °F 16.0 °F 48% 29.92 in 10.0 mi East 3.5 mph - N/A   Clear
8:53 PM 41.0 °F - 12.9 °F 32% 29.89 in 10.0 mi Calm Calm - N/A   Clear
9:53 PM 34.0 °F 29.8 °F 14.0 °F 44% 29.90 in 10.0 mi WSW 4.6 mph - N/A   Clear
11:53 PM 25.0 °F 19.3 °F 15.1 °F 66% 29.87 in 10.0 mi ESE 4.6 mph - N/A   Clear